SCP
0 0 0 0 0 0 0 0 0 0 0 0 0 0 0 0 0 0 0 0 0 0 0 0 0 0 -0 -0 -0 0 0 0 0 0 0 0 0 0
0 0 0 0 0 0 0 0 0 0 0 0 0 0 0 0 0 0 0 0 0 0 0 0 0 0 0 -0 -0 -0 -0 -0 0 0 0 0 0 0
0 0 0 0 0 0 0 0 0 0 0 0 0 0 0 0 0 0 0 0 0 0 0 0 0 0 0 0 -0 -0 -0 -0 -0 -0 0 0 0 0
0 0 0 0 0 0 0 0 0 0 0 0 0 0 0 0 0 0 0 0 0 0 0 0 0 0 0 0 0 -0 -0 -0 -0 -0 -0 -0 0 0
0 0 0 0 0 0 0 0 0 0 0 0 0 0 0 0 0 0 0 0 0 0 0 0 0 0 0 0 0 -0 -0 0 -0 -0 -0 0 -0 -0
0 0 0 0 0 0 0 0 0 0 0 0 0 0 0 0 0 0 0 0 0 0 0 0 0 0 0 0 0 0 -0 0 -0 0 0 0 -0 0
0 0 0 0 0 0 0 0 0 0 0 0 0 0 0 0 0 0 0 0 0 0 0 0 0 0 0 0 0 0 0 0 0 0 0 0 0 0
0 0 0 0 0 0 0 0 0 0 0 0 0 0 0 0 0 0 0 0 0 0 0 0 0 0 0 0 0 0 0 0 0 0 0 0 0 0
0 0 0 0 0 0 0 0 0 0 0 0 0 0 0 0 0 0 0 0 0 0 0 0 0 0 0 0 0 0 0 0 0 0 0 0 0 0
0 0 0 0 0 0 0 0 0 0 0 0 0 0 0 0 0 0 0 0 0 0 0 0 0 0 0 0 0 0 0 0 0 0 0 0 0 0
0 0 0 0 0 0 0 0 0 0 0 0 0 0 0 0 0 0 0 0 0 0 0 0 0 0 0 0 0 0 0 0 0 0 0 0 0 0
0 0 0 0 0 0 0 0 0 0 0 0 0 0 0 0 0 0 0 0 0 0 0 0 0 0 0 0 0 0 0 0 0 0 0 0 0 0
0 0 0 0 0 0 0 0 0 0 0 0 0 0 0 0 0 0 0 0 0 0 0 0 0 0 0 0 0 0 0 0 0 0 0 0 0 0
0 0 0 0 0 0 0 0 0 0 0 0 0 0 0 0 0 0 0 0 0 0 0 0 0 0 0 0 0 0 0 0 0 0 0 0 0 0
0 0 0 0 0 0 0 0 0 0 0 0 0 0 0 0 0 0 0 0 0 0 0 0 0 0 0 0 0 0 0 0 0 0 0 0 0 0
0 0 0 0 0 0 0 0 0 0 0 0 0 0 0 0 0 0 0 0 0 0 0 0 0 0 0 0 0 0 0 0 0 0 0 0 0 0
0 0 0 0 0 0 0 0 0 0 0 0 0 0 0 0 0 0 0 0 0 0 0 0 0 0 0 0 0 0 0 0 0 0 0 0 0 0
0 0 0 0 0 0 0 0 0 0 0 0 0 0 0 0 0 0 0 0 0 0 0 0 0 0 0 0 0 0 0 0 0 0 0 0 0 0
0 0 0 0 0 0 0 0 0 0 0 0 0 0 0 0 0 0 0 0 0 0 0 0 0 0 0 0 0 0 0 0 0 0 0 0 0 0
0 0 0 0 0 0 0 0 0 0 0 0 0 0 0 0 0 0 0 0 0 0 0 0 0 0 0 0 0 0 0 0 0 0 0 0 0 0
0 0 0 0 0 0 0 0 0 0 0 0 0 0 0 0 0 0 0 0 0 0 0 0 0 0 0 0 0 0 0 0 0 0 0 0 0 0
0 0 0 0 0 0 0 0 0 0 0 0 0 0 0 0 0 0 0 0 0 0 0 0 0 0 0 0 0 0 0 0 0 0 0 0 0 0
0 0 0 0 0 0 0 0 0 0 0 0 0 0 0 0 0 0 0 0 0 0 0 0 0 0 0 0 0 0 0 0 0 0 0 0 0 0
Wind_Speed_500mb
24 26 27 33 37 39 36 36 27 25 18 22 11 8 8 7 5 9 11 14 19 19 22 22 28 29 29 30 30 32 32 32 36 38 37 42 29 10
20 19 24 34 44 43 36 35 29 18 17 23 22 15 13 9 5 7 6 10 15 19 24 19 23 26 26 28 29 31 31 31 31 35 37 40 40 42
20 19 26 34 40 38 39 39 33 23 21 27 25 20 16 12 9 7 6 6 9 13 18 20 21 23 25 27 29 29 28 28 29 30 33 34 39 41
23 25 31 33 32 33 37 40 35 28 20 21 30 25 20 19 16 12 7 3 4 6 8 14 17 21 22 25 28 30 30 27 27 28 29 31 34 36
30 33 32 27 28 33 35 38 35 29 27 27 32 27 22 21 19 16 10 7 5 5 6 11 12 16 17 21 26 28 31 29 28 28 29 31 32 35
38 33 28 25 25 29 32 32 32 31 33 33 28 26 23 23 21 16 13 11 8 7 7 8 11 13 14 15 19 23 27 28 29 29 30 31 33 34
35 31 27 27 26 29 29 31 33 34 34 33 29 26 26 25 24 20 16 14 12 9 7 6 6 8 12 13 15 18 22 24 26 27 28 30 32 32
30 29 30 30 29 30 30 31 30 30 31 32 29 26 24 24 24 21 20 17 11 14 10 8 5 5 6 9 13 18 20 21 21 22 25 27 28 30
28 27 30 32 31 31 31 31 32 31 28 25 23 23 23 20 20 21 20 17 17 14 11 10 9 9 9 13 12 15 19 19 17 16 19 22 24 26
27 27 29 29 32 31 31 32 32 31 29 26 24 24 23 21 22 21 20 21 18 15 15 11 12 14 13 13 14 18 20 20 20 22 23 24 26 28
31 32 33 32 32 32 31 31 32 31 29 26 25 23 23 23 22 20 20 19 16 16 15 14 12 15 16 16 16 18 21 22 23 25 28 30 29 29
35 36 35 34 33 31 32 31 30 29 26 27 27 25 24 24 24 22 21 21 19 16 17 16 13 9 7 16 15 18 20 19 20 22 26 30 31 29
36 35 34 33 31 31 32 32 31 29 29 28 28 26 25 24 22 21 21 21 20 21 16 15 13 11 11 11 14 15 17 19 20 20 26 29 31 31
35 31 29 30 30 31 33 35 36 34 33 32 31 29 27 25 24 22 22 22 21 21 19 18 16 14 13 12 9 14 18 17 17 18 25 28 30 30
37 28 27 31 32 33 34 37 39 38 36 36 34 31 27 27 29 27 25 24 23 21 21 20 19 18 16 15 14 15 16 19 17 25 28 30 31 33
39 39 38 38 37 35 35 39 39 39 38 36 33 32 34 36 34 31 31 29 28 27 26 26 25 23 21 20 19 17 19 13 21 26 29 31 32 34
43 47 46 44 42 42 42 41 40 43 43 41 39 40 40 40 39 38 37 35 33 28 28 30 30 29 28 27 24 21 20 19 21 26 31 30 30 34
46 49 49 48 48 46 46 46 46 46 43 40 40 41 42 43 44 43 44 44 37 32 29 27 25 26 27 31 32 26 22 23 22 27 31 31 36 35
50 50 48 46 46 47 47 46 46 44 42 43 43 44 45 46 47 46 46 47 44 38 34 31 30 31 31 34 26 28 28 23 23 24 26 29 40 47
50 46 43 40 41 43 44 45 44 46 47 48 50 50 50 51 53 54 49 47 44 39 38 37 39 37 37 34 30 29 30 33 27 28 31 35 47 55
46 43 40 39 37 37 38 39 41 43 44 48 52 55 56 57 59 59 58 56 51 43 44 44 44 39 34 41 44 41 35 38 41 45 46 44 43 42
45 44 42 41 41 41 41 43 45 47 49 52 55 57 59 62 63 64 63 58 57 56 48 42 37 43 45 46 42 38 35 33 46 50 52 51 52 42
48 47 47 48 49 51 53 56 57 56 57 59 61 61 61 64 63 64 66 66 64 56 54 45 40 47 44 43 43 39 39 47 46 48 49 63 65 66
Wind_Direction_500mb
222 219 214 209 203 185 204 193 188 156 169 185 162 167 155 143 108 72 62 36 44 53 55 66 57 54 51 48 43 49 47 52 53 51 49 47 45 59
202 208 206 206 196 166 180 186 184 185 158 180 190 189 179 174 155 105 77 71 39 34 35 50 64 55 51 50 43 44 47 46 51 50 55 52 46 46
191 192 206 200 188 163 173 184 188 187 181 181 187 190 191 189 188 177 143 93 18 12 15 26 30 53 51 45 42 39 39 39 42 47 49 54 46 45
184 189 205 193 164 156 172 184 189 188 195 189 191 195 199 198 200 192 189 205 338 357 353 357 5 40 39 35 30 30 35 33 32 33 33 38 43 41
190 189 200 194 160 157 169 181 192 200 208 208 192 195 202 200 204 212 211 233 279 311 324 330 347 40 33 24 22 25 29 27 27 29 32 31 33 31
196 189 193 190 174 168 175 184 188 186 183 186 192 196 203 203 199 207 220 235 260 280 298 308 331 25 25 16 13 24 26 24 21 22 24 23 26 25
194 190 190 194 187 178 182 185 185 185 187 190 196 202 206 206 208 211 207 232 246 253 274 286 315 7 6 4 3 18 22 20 18 19 19 18 19 18
198 192 201 201 200 190 189 190 194 196 196 195 200 208 214 212 214 217 216 217 224 247 248 272 285 308 334 336 347 357 14 18 18 17 14 15 16 15
208 202 209 213 207 204 197 195 197 197 198 202 205 212 217 218 216 217 217 212 224 240 220 239 244 245 274 312 330 352 359 4 8 16 17 12 14 16
210 207 209 213 207 204 200 198 198 199 202 202 203 205 212 214 214 213 215 218 226 233 225 225 252 249 269 281 309 338 350 355 358 1 7 15 12 9
210 210 208 206 203 201 200 200 200 201 201 204 206 209 214 216 215 216 217 210 215 231 233 236 250 252 258 263 288 320 335 344 348 352 357 360 1 1
212 212 209 211 209 205 203 202 203 202 201 204 208 213 218 216 214 216 215 214 223 235 236 221 240 241 254 253 268 302 323 334 342 347 351 352 354 357
218 218 214 213 212 211 209 205 206 207 207 207 208 210 213 216 213 214 216 219 223 233 238 233 237 243 234 252 267 275 315 322 333 338 343 344 345 348
223 223 222 221 219 216 214 211 214 212 213 214 215 218 221 224 226 227 227 228 230 234 237 238 242 243 244 259 252 274 303 308 320 328 336 336 338 337
217 222 222 222 222 220 215 218 219 219 219 221 222 225 227 229 233 235 237 238 241 243 247 247 247 252 253 254 264 280 298 301 309 325 331 332 334 336
215 219 220 221 220 221 220 220 224 225 228 231 232 231 229 233 237 238 241 243 244 248 248 250 255 258 259 263 269 272 283 274 297 310 320 325 329 333
221 223 220 218 218 219 221 225 227 228 230 231 233 234 235 236 238 239 241 241 241 238 244 248 251 255 256 259 266 269 272 278 290 305 316 320 325 327
225 223 223 222 223 226 230 233 234 235 236 238 239 241 242 242 242 241 241 240 239 235 234 234 235 243 255 264 257 257 254 272 281 299 311 312 318 321
220 224 226 228 231 235 237 238 240 242 241 242 245 245 245 244 242 240 239 239 239 236 236 233 233 234 242 252 254 252 255 257 275 289 297 302 310 317
221 224 228 232 236 239 240 242 244 244 243 244 247 250 250 249 246 243 240 238 237 237 237 237 236 235 238 249 256 262 262 267 268 281 291 298 308 313
222 226 230 235 239 240 242 243 244 247 249 251 252 253 253 252 250 248 246 245 244 237 238 240 247 259 248 247 255 263 266 271 275 284 294 300 305 307
234 237 239 243 246 248 250 251 252 253 255 255 256 257 256 254 253 251 249 245 246 243 244 248 244 252 245 244 253 260 262 266 282 285 291 295 300 295
242 246 250 252 255 256 256 256 257 259 261 263 261 259 258 255 255 253 251 250 248 246 245 242 238 249 244 243 248 254 257 265 278 279 287 297 302 303
Wind_Speed_850mb
24 26 27 33 37 39 36 36 27 25 18 22 11 8 8 7 5 9 11 14 19 19 22 22 28 29 29 30 30 32 32 32 36 38 37 42 29 10
20 19 24 34 44 43 36 35 29 18 17 23 22 15 13 9 5 7 6 10 15 19 24 19 23 26 26 28 29 31 31 31 31 35 37 40 40 42
20 19 26 34 40 38 39 39 33 23 21 27 25 20 16 12 9 7 6 6 9 13 18 20 21 23 25 27 29 29 28 28 29 30 33 34 39 41
23 25 31 33 32 33 37 40 35 28 20 21 30 25 20 19 16 12 7 3 4 6 8 14 17 21 22 25 28 30 30 27 27 28 29 31 34 36
30 33 32 27 28 33 35 38 35 29 27 27 32 27 22 21 19 16 10 7 5 5 6 11 12 16 17 21 26 28 31 29 28 28 29 31 32 35
38 33 28 25 25 29 32 32 32 31 33 33 28 26 23 23 21 16 13 11 8 7 7 8 11 13 14 15 19 23 27 28 29 29 30 31 33 34
35 31 27 27 26 29 29 31 33 34 34 33 29 26 26 25 24 20 16 14 12 9 7 6 6 8 12 13 15 18 22 24 26 27 28 30 32 32
30 29 30 30 29 30 30 31 30 30 31 32 29 26 24 24 24 21 20 17 11 14 10 8 5 5 6 9 13 18 20 21 21 22 25 27 28 30
28 27 30 32 31 31 31 31 32 31 28 25 23 23 23 20 20 21 20 17 17 14 11 10 9 9 9 13 12 15 19 19 17 16 19 22 24 26
27 27 29 29 32 31 31 32 32 31 29 26 24 24 23 21 22 21 20 21 18 15 15 11 12 14 13 13 14 18 20 20 20 22 23 24 26 28
31 32 33 32 32 32 31 31 32 31 29 26 25 23 23 23 22 20 20 19 16 16 15 14 12 15 16 16 16 18 21 22 23 25 28 30 29 29
35 36 35 34 33 31 32 31 30 29 26 27 27 25 24 24 24 22 21 21 19 16 17 16 13 9 7 16 15 18 20 19 20 22 26 30 31 29
36 35 34 33 31 31 32 32 31 29 29 28 28 26 25 24 22 21 21 21 20 21 16 15 13 11 11 11 14 15 17 19 20 20 26 29 31 31
35 31 29 30 30 31 33 35 36 34 33 32 31 29 27 25 24 22 22 22 21 21 19 18 16 14 13 12 9 14 18 17 17 18 25 28 30 30
37 28 27 31 32 33 34 37 39 38 36 36 34 31 27 27 29 27 25 24 23 21 21 20 19 18 16 15 14 15 16 19 17 25 28 30 31 33
39 39 38 38 37 35 35 39 39 39 38 36 33 32 34 36 34 31 31 29 28 27 26 26 25 23 21 20 19 17 19 13 21 26 29 31 32 34
43 47 46 44 42 42 42 41 40 43 43 41 39 40 40 40 39 38 37 35 33 28 28 30 30 29 28 27 24 21 20 19 21 26 31 30 30 34
46 49 49 48 48 46 46 46 46 46 43 40 40 41 42 43 44 43 44 44 37 32 29 27 25 26 27 31 32 26 22 23 22 27 31 31 36 35
50 50 48 46 46 47 47 46 46 44 42 43 43 44 45 46 47 46 46 47 44 38 34 31 30 31 31 34 26 28 28 23 23 24 26 29 40 47
50 46 43 40 41 43 44 45 44 46 47 48 50 50 50 51 53 54 49 47 44 39 38 37 39 37 37 34 30 29 30 33 27 28 31 35 47 55
46 43 40 39 37 37 38 39 41 43 44 48 52 55 56 57 59 59 58 56 51 43 44 44 44 39 34 41 44 41 35 38 41 45 46 44 43 42
45 44 42 41 41 41 41 43 45 47 49 52 55 57 59 62 63 64 63 58 57 56 48 42 37 43 45 46 42 38 35 33 46 50 52 51 52 42
48 47 47 48 49 51 53 56 57 56 57 59 61 61 61 64 63 64 66 66 64 56 54 45 40 47 44 43 43 39 39 47 46 48 49 63 65 66
Wind_Direction_850mb
222 219 214 209 203 185 204 193 188 156 169 185 162 167 155 143 108 72 62 36 44 53 55 66 57 54 51 48 43 49 47 52 53 51 49 47 45 59
202 208 206 206 196 166 180 186 184 185 158 180 190 189 179 174 155 105 77 71 39 34 35 50 64 55 51 50 43 44 47 46 51 50 55 52 46 46
191 192 206 200 188 163 173 184 188 187 181 181 187 190 191 189 188 177 143 93 18 12 15 26 30 53 51 45 42 39 39 39 42 47 49 54 46 45
184 189 205 193 164 156 172 184 189 188 195 189 191 195 199 198 200 192 189 205 338 357 353 357 5 40 39 35 30 30 35 33 32 33 33 38 43 41
190 189 200 194 160 157 169 181 192 200 208 208 192 195 202 200 204 212 211 233 279 311 324 330 347 40 33 24 22 25 29 27 27 29 32 31 33 31
196 189 193 190 174 168 175 184 188 186 183 186 192 196 203 203 199 207 220 235 260 280 298 308 331 25 25 16 13 24 26 24 21 22 24 23 26 25
194 190 190 194 187 178 182 185 185 185 187 190 196 202 206 206 208 211 207 232 246 253 274 286 315 7 6 4 3 18 22 20 18 19 19 18 19 18
198 192 201 201 200 190 189 190 194 196 196 195 200 208 214 212 214 217 216 217 224 247 248 272 285 308 334 336 347 357 14 18 18 17 14 15 16 15
208 202 209 213 207 204 197 195 197 197 198 202 205 212 217 218 216 217 217 212 224 240 220 239 244 245 274 312 330 352 359 4 8 16 17 12 14 16
210 207 209 213 207 204 200 198 198 199 202 202 203 205 212 214 214 213 215 218 226 233 225 225 252 249 269 281 309 338 350 355 358 1 7 15 12 9
210 210 208 206 203 201 200 200 200 201 201 204 206 209 214 216 215 216 217 210 215 231 233 236 250 252 258 263 288 320 335 344 348 352 357 360 1 1
212 212 209 211 209 205 203 202 203 202 201 204 208 213 218 216 214 216 215 214 223 235 236 221 240 241 254 253 268 302 323 334 342 347 351 352 354 357
218 218 214 213 212 211 209 205 206 207 207 207 208 210 213 216 213 214 216 219 223 233 238 233 237 243 234 252 267 275 315 322 333 338 343 344 345 348
223 223 222 221 219 216 214 211 214 212 213 214 215 218 221 224 226 227 227 228 230 234 237 238 242 243 244 259 252 274 303 308 320 328 336 336 338 337
217 222 222 222 222 220 215 218 219 219 219 221 222 225 227 229 233 235 237 238 241 243 247 247 247 252 253 254 264 280 298 301 309 325 331 332 334 336
215 219 220 221 220 221 220 220 224 225 228 231 232 231 229 233 237 238 241 243 244 248 248 250 255 258 259 263 269 272 283 274 297 310 320 325 329 333
221 223 220 218 218 219 221 225 227 228 230 231 233 234 235 236 238 239 241 241 241 238 244 248 251 255 256 259 266 269 272 278 290 305 316 320 325 327
225 223 223 222 223 226 230 233 234 235 236 238 239 241 242 242 242 241 241 240 239 235 234 234 235 243 255 264 257 257 254 272 281 299 311 312 318 321
220 224 226 228 231 235 237 238 240 242 241 242 245 245 245 244 242 240 239 239 239 236 236 233 233 234 242 252 254 252 255 257 275 289 297 302 310 317
221 224 228 232 236 239 240 242 244 244 243 244 247 250 250 249 246 243 240 238 237 237 237 237 236 235 238 249 256 262 262 267 268 281 291 298 308 313
222 226 230 235 239 240 242 243 244 247 249 251 252 253 253 252 250 248 246 245 244 237 238 240 247 259 248 247 255 263 266 271 275 284 294 300 305 307
234 237 239 243 246 248 250 251 252 253 255 255 256 257 256 254 253 251 249 245 246 243 244 248 244 252 245 244 253 260 262 266 282 285 291 295 300 295
242 246 250 252 255 256 256 256 257 259 261 263 261 259 258 255 255 253 251 250 248 246 245 242 238 249 244 243 248 254 257 265 278 279 287 297 302 303